Location: Newark
(27.5900°N, 83.4900°E)
Time: 22:31:05
(UTC+00:00)

Hubble Space Telescope - Pass Details

Date: 13 December 2019
Orbit: 536 x 540 km, 28.5° (Epoch: 23 January)

Event Time Altitude Azimuth Distance (km) Brightness Sun altitude
Exits shadow 22:52:08 22° 149° (SSE) 1,189 2.9 -29.2°
Drops below altitude 10° 22:55:06 10° 103° (ESE) 1,784 4.4 -28.6°
Sets 22:57:43 0° 88° (E) 2,677 5.5 -28.0°
